TimeEST,TemperatureF,Dew PointF,Humidity,Sea Level PressureIn,VisibilityMPH,Wind Direction,Wind SpeedMPH,Gust SpeedMPH,PrecipitationIn,Events,Conditions,WindDirDegrees,DateUTC
12:01 AM,30.0,27.0,88,29.86,7.0,NNW,3.5,-,N/A,,Overcast,340,2014-01-17 05:01:00
12:41 AM,30.0,28.0,92,29.86,2.5,Calm,Calm,-,0.00,Snow,Light Snow,0,2014-01-17 05:41:00
12:52 AM,30.0,28.0,92,29.90,2.5,Calm,Calm,-,0.00,Snow,Light Snow,0,2014-01-17 05:52:00
1:04 AM,30.0,28.0,92,29.86,3.0,Calm,Calm,-,0.00,Snow,Light Snow,0,2014-01-17 06:04:00
1:27 AM,30.0,28.0,92,29.85,3.0,Calm,Calm,-,0.00,Snow,Light Snow,0,2014-01-17 06:27:00
1:52 AM,30.0,28.0,92,29.90,3.0,Calm,Calm,-,0.00,Snow,Light Snow,0,2014-01-17 06:52:00
2:47 AM,30.2,28.4,93,29.85,4.0,Calm,Calm,-,0.00,,Overcast,0,2014-01-17 07:47:00
2:52 AM,30.0,28.0,92,29.90,4.0,Calm,Calm,-,0.00,,Overcast,0,2014-01-17 07:52:00
3:52 AM,30.0,27.0,88,29.88,6.0,NNW,3.5,-,N/A,,Overcast,340,2014-01-17 08:52:00
4:04 AM,28.0,27.0,96,29.84,6.0,Calm,Calm,-,N/A,,Overcast,0,2014-01-17 09:04:00
4:12 AM,28.9,27.0,92,29.84,6.0,Calm,Calm,-,N/A,,Overcast,0,2014-01-17 09:12:00
4:36 AM,28.9,27.0,92,29.83,5.0,Calm,Calm,-,N/A,,Overcast,0,2014-01-17 09:36:00
4:52 AM,28.9,28.0,96,29.88,5.0,Calm,Calm,-,N/A,,Overcast,0,2014-01-17 09:52:00
5:05 AM,28.9,28.0,96,29.83,5.0,Calm,Calm,-,N/A,,Overcast,0,2014-01-17 10:05:00
5:16 AM,28.9,27.0,92,29.84,6.0,Calm,Calm,-,N/A,,Overcast,0,2014-01-17 10:16:00
5:31 AM,28.0,27.0,96,29.84,5.0,Calm,Calm,-,N/A,,Overcast,0,2014-01-17 10:31:00
5:52 AM,27.0,26.1,96,29.89,4.0,Calm,Calm,-,N/A,,Overcast,0,2014-01-17 10:52:00
6:52 AM,28.0,25.0,88,29.89,7.0,Calm,Calm,-,N/A,,Overcast,0,2014-01-17 11:52:00
8:21 AM,28.0,27.0,96,29.87,5.0,Calm,Calm,-,N/A,,Overcast,0,2014-01-17 13:21:00
8:37 AM,28.9,27.0,92,29.87,7.0,Calm,Calm,-,N/A,,Overcast,0,2014-01-17 13:37:00
8:52 AM,28.9,27.0,92,29.92,8.0,Calm,Calm,-,N/A,,Overcast,0,2014-01-17 13:52:00
9:52 AM,32.0,28.9,88,29.91,8.0,Calm,Calm,-,N/A,,Overcast,0,2014-01-17 14:52:00
10:49 AM,33.8,30.2,87,29.84,10.0,Calm,Calm,-,N/A,,Overcast,0,2014-01-17 15:49:00
10:50 AM,34.0,30.0,85,29.88,10.0,Calm,Calm,-,N/A,,Overcast,0,2014-01-17 15:50:00
11:52 AM,36.0,30.9,82,29.84,10.0,Calm,Calm,-,N/A,,Overcast,0,2014-01-17 16:52:00
12:52 PM,37.0,30.0,76,29.83,10.0,South,5.8,-,N/A,,Mostly Cloudy,190,2014-01-17 17:52:00
1:13 PM,37.9,30.9,76,29.79,10.0,NW,3.5,-,N/A,,Overcast,320,2014-01-17 18:13:00
1:52 PM,39.0,30.0,70,29.84,10.0,Calm,Calm,-,N/A,,Mostly Cloudy,0,2014-01-17 18:52:00
2:02 PM,37.0,30.0,76,29.80,10.0,NNW,3.5,-,N/A,,Scattered Clouds,340,2014-01-17 19:02:00
2:52 PM,37.0,28.0,70,29.85,10.0,North,3.5,-,N/A,,Mostly Cloudy,10,2014-01-17 19:52:00
3:52 PM,35.1,26.1,70,29.86,10.0,Calm,Calm,-,N/A,,Partly Cloudy,0,2014-01-17 20:52:00
4:52 PM,28.9,24.1,82,29.88,10.0,Calm,Calm,-,N/A,,Clear,0,2014-01-17 21:52:00
5:52 PM,30.9,24.1,76,29.89,10.0,SSW,6.9,-,N/A,,Partly Cloudy,210,2014-01-17 22:52:00
6:52 PM,28.9,21.9,75,29.90,10.0,SSE,3.5,-,N/A,,Clear,160,2014-01-17 23:52:00
7:52 PM,30.0,21.9,72,29.91,10.0,South,5.8,-,N/A,,Partly Cloudy,190,2014-01-18 00:52:00
8:52 PM,27.0,21.0,78,29.92,10.0,Calm,Calm,-,N/A,,Clear,0,2014-01-18 01:52:00
9:52 PM,25.0,21.9,88,29.91,10.0,ESE,3.5,-,N/A,,Clear,110,2014-01-18 02:52:00
10:52 PM,25.0,21.0,85,29.91,10.0,Calm,Calm,-,N/A,,Clear,0,2014-01-18 03:52:00
11:52 PM,21.9,19.0,89,29.90,10.0,Calm,Calm,-,N/A,,Clear,0,2014-01-18 04:52:00